Location: Jackson
(42.2460°N, 84.4010°W)
Time: 18:39:19
(UTC-04:00)

Courier 1B Rocket - Pass Details

Date: 12 February 2026
Orbit: 920 x 1201 km, 28.2° (Epoch: 12 March)

Event Time Altitude Azimuth Distance (km) Brightness Sun altitude
Rises 01:12:20 0° 252° (WSW) 3,809 - -61.1°
Reaches altitude 10° 01:15:31 10° 239° (WSW) 2,904 - -61.0°
Maximum altitude 01:21:03 24° 188° (S) 2,107 - -60.7°
Drops below altitude 10° 01:26:51 10° 137° (SE) 3,052 - -60.4°
Sets 01:30:18 0° 125° (SE) 4,046 - -60.2°
